Wind_Speed
34 34 37 30 29 32 29 24 22 20 16 12 10 14 13 3 6 7 11 8 7 6 13 18 18 11 17 19 19 16 14 12 17 16 11 12 8 10 13 19 23 26 27 26
32 37 36 31 29 32 30 27 22 21 19 16 13 10 10 7 2 4 6 13 12 11 8 20 21 12 15 22 26 22 22 18 20 21 18 16 13 12 16 17 18 24 24 22
36 38 35 32 32 31 30 26 23 21 19 17 15 12 7 13 8 5 8 9 12 17 22 20 27 22 24 22 24 27 26 26 22 22 23 18 18 18 20 18 25 22 22 23
38 38 33 33 32 29 27 23 21 21 20 17 15 11 7 12 6 16 3 10 11 17 27 23 16 21 25 26 27 29 29 30 29 25 24 22 21 18 13 18 20 23 25 21
45 40 36 35 34 28 27 29 25 24 21 20 15 11 7 9 10 10 7 8 5 29 15 21 17 16 23 24 27 28 28 32 34 33 30 30 27 21 16 19 18 18 20 23
46 43 38 40 36 31 30 29 24 27 23 16 17 10 10 13 12 12 9 6 19 19 26 22 18 18 25 27 27 27 26 28 30 35 33 31 29 28 23 20 21 22 24 25
47 43 40 40 38 35 31 28 26 29 17 14 17 14 13 18 16 13 13 9 13 23 28 22 24 22 25 27 24 24 27 25 22 30 31 35 35 34 32 26 23 25 22 27
42 40 41 40 39 35 33 30 31 30 16 20 19 17 11 13 21 21 14 11 9 17 21 23 26 25 22 25 24 22 22 21 17 22 23 25 32 35 35 32 29 25 22 25
38 39 41 39 38 34 37 31 36 29 24 26 22 16 13 12 21 20 13 10 11 15 22 20 20 23 21 22 18 20 17 20 27 17 25 25 25 28 28 33 32 29 28 26
36 35 35 38 38 35 34 38 31 31 26 29 31 18 17 12 20 17 13 16 18 16 21 26 26 25 19 14 13 13 11 9 16 18 20 25 28 24 23 21 25 27 29 30
33 33 34 35 34 37 36 35 35 38 29 31 33 23 22 17 17 11 14 18 23 20 20 24 24 24 18 13 12 14 12 9 11 12 11 17 23 23 21 19 18 22 26 24
27 32 33 32 37 38 38 37 40 37 36 37 38 21 20 19 13 11 11 29 26 32 20 31 31 22 24 19 18 17 15 16 12 14 10 12 12 14 16 14 15 14 8 9
23 24 32 31 33 34 38 39 41 39 39 39 34 19 16 18 16 11 15 38 13 32 45 35 32 25 27 24 19 21 20 20 17 17 16 11 12 11 12 16 18 13 11 13
23 23 26 32 34 36 36 35 39 42 36 37 32 22 16 15 26 20 19 29 21 12 24 31 31 29 27 30 27 25 24 23 24 21 19 16 14 17 13 21 22 19 19 20
18 24 25 29 29 28 27 30 34 38 44 34 31 25 25 28 26 18 19 21 14 25 22 23 45 36 31 34 34 29 30 29 29 25 22 19 19 20 20 25 27 27 30 27
20 23 26 21 29 30 40 41 36 37 44 29 33 31 18 21 23 29 24 20 24 37 28 29 42 39 30 33 36 36 33 31 32 34 29 27 26 29 30 32 33 34 36 37
15 22 25 23 29 38 42 42 33 32 45 33 34 26 24 18 15 29 31 37 33 31 37 43 41 38 38 31 32 36 38 39 37 34 36 35 29 28 33 37 39 44 47 46
26 26 26 23 31 42 45 35 39 39 37 35 37 25 27 31 29 26 33 33 36 26 28 39 43 38 40 37 32 36 41 40 44 41 39 39 37 34 30 39 41 42 43 45
23 21 27 24 32 42 47 39 46 41 40 44 39 25 36 39 36 28 39 46 47 43 50 56 46 44 41 36 27 21 32 35 44 47 48 51 48 46 45 45 47 44 46 50
9 14 23 28 32 38 38 36 36 38 40 28 36 28 29 47 39 29 41 46 56 54 54 50 44 42 38 34 38 42 52 46 49 50 48 40 41 45 49 50 56 52 52 57
24 21 16 25 36 43 42 29 32 25 20 19 17 36 38 39 45 50 51 59 54 51 53 50 50 47 40 36 44 49 52 55 53 52 52 51 41 41 53 56 64 60 59 62
37 22 15 10 19 37 44 37 27 11 16 32 32 29 32 31 28 37 46 51 49 51 53 52 50 45 42 26 39 46 50 55 58 59 58 62 64 64 64 64 66 67 66 65
26 22 22 5 8 27 33 36 20 2 10 35 44 58 47 32 28 35 36 38 41 46 48 47 47 43 41 44 46 49 46 50 55 59 62 65 67 66 65 71 64 67 70 71
30 16 16 11 19 21 34 37 27 29 10 22 38 37 40 37 33 40 40 45 50 46 43 42 43 45 45 45 43 44 46 48 52 57 61 65 69 71 70 71 70 71 72 75
11 14 6 11 15 21 30 37 42 41 39 41 26 31 31 38 44 45 48 55 52 46 40 40 40 43 46 43 44 43 45 46 47 50 54 61 66 73 75 75 79 81 81 81
8 30 25 13 21 17 24 29 30 37 43 50 49 46 50 47 46 54 59 45 45 47 44 41 40 39 42 43 44 45 43 42 44 46 47 54 60 63 67 74 78 82 86 90
Wind_Direction
270 274 273 278 282 286 286 293 299 307 301 300 298 299 295 276 234 256 199 221 299 286 283 295 283 261 254 248 251 259 271 267 255 242 249 254 259 233 231 219 230 238 240 232
266 267 270 275 277 279 283 287 295 298 303 304 298 284 288 273 299 1 297 217 236 329 289 280 287 261 253 255 254 253 246 260 255 245 247 255 259 240 269 232 222 244 239 240
261 263 267 270 270 273 280 285 287 283 288 286 288 299 292 280 181 125 2 345 330 294 309 288 275 281 277 266 263 257 257 248 249 251 250 245 251 243 249 251 231 233 235 237
259 259 261 263 265 269 269 267 277 283 283 278 279 289 280 282 267 186 83 66 346 257 298 283 270 274 269 266 268 265 262 262 257 250 238 240 252 245 265 272 247 237 236 240
255 256 256 258 260 265 263 261 263 274 271 273 271 266 261 249 258 255 134 72 168 323 303 289 290 273 269 266 262 270 266 258 252 247 241 234 235 241 255 249 250 251 244 240
253 254 253 253 253 252 254 258 259 261 263 286 278 263 244 238 222 249 214 185 224 261 301 318 293 270 268 259 249 254 260 267 255 249 248 244 241 242 236 245 246 254 252 246
248 249 246 247 249 250 250 252 254 259 268 277 273 250 251 233 210 226 226 253 272 296 294 295 285 264 261 263 250 256 270 263 252 245 240 241 247 247 244 242 247 245 257 245
246 244 244 243 244 245 250 248 251 257 263 259 265 263 246 210 229 215 240 259 270 276 282 267 265 264 260 265 257 271 263 241 238 232 236 234 240 244 248 246 246 247 251 249
244 243 239 238 238 236 242 246 245 252 252 251 254 257 269 245 245 229 239 284 277 309 314 303 267 257 255 263 268 273 253 240 235 235 237 245 244 250 249 247 248 250 250 252
242 242 240 239 239 236 236 242 249 253 244 255 259 272 286 261 270 275 297 296 295 322 325 315 310 270 264 264 272 248 241 223 223 237 247 248 245 247 246 243 243 249 250 251
241 238 237 236 236 234 233 239 238 244 236 240 257 257 271 262 246 260 298 294 305 312 313 327 310 287 253 255 242 228 218 212 205 208 231 250 253 254 253 257 254 259 260 258
244 234 234 228 227 228 227 228 229 236 246 241 248 246 246 258 255 262 263 310 309 321 307 327 324 289 253 241 236 224 217 202 221 212 236 264 257 238 231 225 212 200 221 252
244 238 234 229 230 234 231 225 231 232 238 246 250 246 251 246 232 197 186 217 285 298 274 290 319 299 267 247 236 228 218 209 232 239 247 265 271 232 221 195 190 224 260 267
247 241 236 228 227 227 229 227 236 234 236 242 249 239 257 235 246 200 240 238 236 281 254 285 316 312 281 254 243 232 231 230 241 243 244 237 268 253 232 219 225 250 269 261
252 242 239 234 230 237 241 233 238 255 251 243 247 239 227 217 238 245 221 222 307 280 297 326 299 302 293 268 251 243 238 236 237 249 259 260 247 259 258 247 249 272 273 275
259 241 243 235 215 215 192 230 253 250 254 245 242 239 234 219 228 241 252 226 226 253 258 239 278 296 299 286 269 258 254 250 246 250 252 258 254 251 256 256 254 262 270 272
242 257 248 229 208 209 202 221 241 255 259 252 248 235 215 202 215 239 239 239 243 259 279 278 280 298 301 295 282 269 257 251 255 255 252 254 256 256 257 257 263 265 266 269
262 261 252 238 202 208 209 225 238 240 251 255 253 237 208 210 217 231 222 236 245 260 271 264 274 295 295 295 294 295 269 257 254 253 253 255 256 256 262 266 262 262 265 268
262 254 252 236 214 208 216 217 236 248 256 258 265 269 219 212 221 249 252 250 259 265 264 281 288 290 288 286 267 254 270 265 260 256 255 257 257 257 257 258 263 269 267 270
290 290 254 229 213 206 213 224 238 247 263 289 270 260 222 212 222 249 258 268 262 271 268 273 282 281 280 279 277 268 263 263 261 257 252 249 256 250 247 255 262 267 271 273
273 294 270 223 203 200 200 199 234 261 282 288 265 245 253 246 240 247 252 259 273 273 279 276 276 277 277 272 263 261 259 257 258 256 247 238 245 250 248 247 257 264 269 273
257 268 258 246 214 205 215 228 220 254 296 267 274 274 262 261 250 251 254 268 283 284 283 283 280 276 269 259 274 262 263 258 257 256 251 250 251 256 252 253 257 261 269 275
247 251 222 212 132 193 208 209 214 155 256 213 271 288 270 263 272 285 284 288 296 301 294 285 278 272 269 260 265 269 266 256 255 256 256 254 256 256 252 255 264 270 272 275
216 196 202 234 143 189 209 207 205 181 205 229 248 269 255 259 267 279 287 293 301 306 297 288 279 272 264 264 267 266 265 262 260 257 256 257 258 259 258 260 264 268 270 272
187 203 188 172 167 195 214 219 221 220 227 240 269 263 269 268 273 282 290 288 290 295 292 290 284 274 271 269 269 266 264 267 265 261 258 256 257 257 260 262 262 265 267 271
234 199 215 204 169 187 215 226 238 231 219 233 247 254 266 272 275 287 286 290 302 302 295 294 288 283 278 274 273 270 270 273 271 270 269 263 263 263 264 264 265 267 270 273
Height
10961 10962 10958 10963 10963 10959 10959 10962 10964 10965 10965 10965 10962 10957 10958 10960 10960 10955 10962 10964 10965 10962 10961 10966 10970 10968 10970 10966 10966 10965 10965 10967 10967 10967 10969 10972 10973 10974 10977 10979 10979 10977 10975 10979
10956 10952 10952 10956 10957 10954 10956 10958 10961 10958 10957 10958 10956 10955 10955 10956 10958 10961 10960 10956 10964 10965 10964 10962 10965 10967 10970 10966 10966 10965 10966 10965 10965 10965 10968 10970 10972 10972 10974 10977 10978 10977 10975 10979
10947 10945 10947 10949 10950 10951 10950 10953 10956 10955 10954 10951 10951 10949 10952 10949 10956 10957 10953 10957 10960 10964 10963 10959 10956 10960 10962 10962 10964 10964 10963 10963 10963 10963 10964 10967 10968 10969 10968 10970 10974 10975 10975 10976
10937 10937 10941 10942 10942 10946 10946 10945 10947 10948 10947 10945 10946 10947 10948 10946 10949 10957 10949 10957 10956 10948 10947 10945 10948 10950 10952 10956 10958 10957 10957 10957 10959 10960 10961 10962 10963 10963 10962 10965 10966 10968 10971 10973
10924 10929 10933 10935 10935 10940 10940 10939 10942 10943 10942 10940 10944 10948 10948 10945 10945 10948 10952 10952 10953 10961 10943 10934 10936 10942 10949 10951 10953 10951 10950 10953 10956 10958 10958 10957 10957 10958 10959 10962 10964 10964 10966 10967
10914 10919 10925 10925 10929 10933 10934 10934 10936 10936 10936 10941 10940 10946 10945 10942 10943 10948 10952 10949 10945 10940 10929 10923 10934 10939 10944 10948 10950 10949 10948 10947 10947 10951 10953 10954 10954 10955 10956 10958 10958 10960 10962 10963
10901 10909 10914 10917 10920 10924 10928 10930 10929 10927 10933 10935 10934 10936 10938 10940 10943 10944 10949 10951 10938 10931 10929 10933 10933 10940 10943 10945 10944 10943 10942 10941 10941 10943 10946 10947 10948 10950 10952 10953 10955 10955 10956 10958
10893 10900 10903 10907 10912 10917 10919 10922 10922 10922 10930 10928 10929 10932 10931 10934 10937 10941 10944 10948 10950 10946 10943 10942 10938 10939 10940 10939 10940 10940 10937 10935 10938 10938 10940 10940 10941 10943 10945 10947 10949 10950 10951 10951
10883 10888 10893 10899 10903 10911 10909 10914 10912 10918 10923 10922 10921 10924 10927 10930 10931 10936 10942 10944 10947 10944 10939 10938 10938 10933 10934 10934 10935 10934 10933 10932 10933 10934 10935 10935 10935 10936 10938 10941 10943 10945 10946 10946
10873 10880 10886 10890 10895 10902 10906 10903 10911 10913 10917 10915 10914 10922 10924 10929 10928 10932 10936 10936 10934 10933 10930 10927 10927 10929 10928 10928 10930 10929 10929 10928 10927 10929 10929 10929 10929 10932 10933 10935 10937 10939 10940 10941
10864 10871 10875 10882 10889 10891 10897 10899 10901 10898 10908 10910 10909 10916 10920 10922 10923 10926 10932 10930 10928 10928 10924 10921 10920 10921 10923 10925 10924 10923 10923 10924 10923 10923 10923 10923 10924 10925 10926 10928 10930 10933 10933 10933
10857 10861 10866 10872 10874 10879 10887 10889 10890 10894 10898 10901 10901 10915 10917 10917 10917 10919 10921 10919 10926 10927 10920 10917 10917 10915 10916 10918 10919 10918 10918 10919 10919 10919 10920 10919 10918 10919 10920 10920 10922 10924 10926 10927
10850 10855 10858 10864 10866 10872 10878 10882 10883 10887 10889 10889 10894 10906 10911 10912 10911 10910 10911 10917 10925 10932 10908 10916 10914 10910 10909 10914 10916 10915 10914 10916 10916 10917 10917 10918 10917 10916 10915 10915 10917 10919 10921 10922
10843 10847 10851 10855 10858 10861 10869 10875 10877 10877 10878 10882 10889 10899 10902 10902 10899 10905 10907 10917 10926 10918 10915 10919 10913 10906 10905 10908 10910 10912 10911 10912 10913 10913 10913 10914 10914 10914 10913 10915 10912 10912 10914 10915
10837 10839 10843 10847 10855 10862 10865 10869 10871 10874 10873 10881 10885 10893 10894 10896 10899 10903 10906 10913 10922 10917 10922 10900 10912 10906 10899 10902 10905 10907 10907 10908 10910 10910 10910 10910 10910 10909 10909 10909 10908 10908 10907 10907
10831 10831 10834 10842 10846 10850 10858 10863 10867 10869 10863 10882 10879 10881 10893 10895 10899 10899 10901 10902 10910 10908 10910 10920 10913 10903 10901 10901 10901 10904 10905 10908 10905 10902 10903 10902 10903 10905 10903 10901 10900 10900 10899 10898
10824 10825 10826 10834 10840 10845 10855 10858 10861 10862 10859 10872 10872 10878 10886 10891 10894 10895 10893 10890 10889 10889 10894 10899 10900 10898 10897 10892 10889 10890 10890 10890 10895 10898 10894 10895 10896 10895 10894 10892 10892 10890 10888 10886
10815 10816 10818 10824 10833 10840 10840 10845 10848 10850 10851 10859 10861 10876 10882 10880 10883 10886 10880 10879 10878 10884 10891 10891 10894 10896 10892 10885 10877 10883 10879 10879 10882 10886 10888 10885 10885 10885 10884 10881 10878 10875 10875 10874
10808 10807 10810 10815 10821 10829 10838 10845 10838 10846 10847 10845 10855 10872 10877 10876 10877 10872 10874 10872 10872 10876 10876 10879 10883 10884 10886 10883 10869 10876 10874 10873 10869 10873 10876 10873 10871 10872 10871 10866 10866 10864 10862 10860
10799 10795 10798 10805 10811 10818 10824 10835 10842 10845 10843 10851 10856 10864 10867 10870 10876 10865 10866 10865 10867 10869 10869 10864 10868 10873 10879 10880 10870 10866 10864 10861 10859 10862 10862 10860 10859 10855 10854 10854 10850 10847 10846 10844
10793 10793 10793 10795 10803 10812 10824 10832 10834 10839 10838 10841 10848 10849 10853 10861 10866 10857 10857 10850 10848 10853 10850 10854 10855 10860 10868 10872 10866 10860 10854 10851 10851 10850 10847 10846 10847 10842 10841 10838 10834 10832 10831 10828
10788 10791 10795 10796 10801 10807 10816 10823 10827 10837 10834 10828 10833 10842 10840 10842 10850 10852 10850 10845 10842 10840 10839 10842 10843 10849 10847 10849 10845 10845 10844 10842 10839 10836 10834 10833 10833 10832 10827 10824 10820 10818 10815 10811
10779 10784 10793 10794 10793 10801 10806 10811 10827 10831 10831 10845 10824 10828 10835 10832 10831 10832 10834 10835 10836 10833 10832 10833 10832 10833 10834 10833 10830 10828 10827 10826 10824 10822 10820 10819 10817 10816 10813 10811 10807 10803 10800 10796
10780 10786 10786 10788 10789 10789 10791 10796 10804 10822 10827 10829 10834 10832 10825 10821 10822 10825 10826 10827 10825 10824 10822 10825 10822 10820 10820 10818 10816 10814 10811 10810 10810 10809 10808 10805 10801 10800 10798 10794 10790 10786 10782 10779
10769 10776 10781 10782 10787 10783 10784 10788 10793 10800 10815 10822 10819 10818 10821 10823 10823 10823 10820 10820 10817 10813 10814 10813 10811 10810 10807 10806 10804 10802 10799 10797 10796 10793 10793 10790 10786 10785 10781 10777 10771 10766 10762 10760
10765 10763 10774 10778 10779 10779 10777 10782 10790 10801 10805 10809 10810 10809 10812 10813 10815 10816 10819 10815 10813 10810 10806 10802 10800 10797 10796 10795 10793 10790 10787 10784 10782 10779 10777 10775 10769 10766 10762 10758 10753 10747 10743 10738